    31209,2009-06-06T19:29:42.527,-1817.40, 8396922, 140.28,  33.42, 2574799,       0, 2574699, 2574820, 2574833,      74,   -1.72,   0.147,    0.00,    0.00,    0.00
    31210,2009-06-06T19:29:46.527,-1813.40, 8375497, 140.29,  33.51, 2574832,       0, 2574670, 2574789, 2574865,      96,   -1.41,   0.132,    0.00,    0.00,    0.00
    31211,2009-06-06T19:29:50.384,-1809.54, 8354847, 140.32,  33.51, 2574815,       0, 2574680, 2574800, 2574848,      86,   -1.42,   0.162,    0.00,    0.00,    0.00
    31212,2009-06-06T19:29:54.241,-1805.69, 8334201, 140.36,  33.46, 2574846,       0, 2574661, 2574780, 2574880,      80,   -0.77,   0.137,    0.00,    0.00,    0.00
    31213,2009-06-06T19:29:58.098,-1801.83, 8313559, 140.39,  33.40, 2574830,       0, 2574685, 2574802, 2574864,      74,   -1.81,   0.114,    0.00,    0.00,    0.00
    31214,2009-06-06T19:30:01.955,-1797.97, 8292921, 140.43,  33.35, 2574840,       0, 2574679, 2574795, 2574875,      76,   -1.45,   0.092,    0.00,    0.00,    0.00
    31215,2009-06-06T19:30:05.812,-1794.12, 8272287, 140.46,  33.29, 2574847,       0, 2574682, 2574797, 2574882,      77,   -1.57,   0.077,    0.00,    0.00,    0.00
    31216,2009-06-06T19:30:09.669,-1790.26, 8251657, 140.51,  33.22, 2574886,       0, 2574642, 2574757, 2574921,     101,   -1.02,   0.076,    0.00,    0.00,    0.00
    31217,2009-06-06T19:30:13.527,-1786.40, 8231027, 140.54,  33.15, 2574839,       0, 2574682, 2574798, 2574872,      94,   -1.60,   0.115,    0.00,    0.00,    0.00
    31218,2009-06-06T19:30:17.384,-1782.54, 8210405, 140.59,  33.11, 2574850,       0, 2574674, 2574789, 2574884,      75,   -1.12,   0.114,    0.00,    0.00,    0.00
    31219,2009-06-06T19:30:21.241,-1778.69, 8189788, 140.62,  33.06, 2574843,       0, 2574665, 2574780, 2574876,      92,   -1.23,   0.133,    0.00,    0.00,    0.00
    31220,2009-06-06T19:30:25.098,-1774.83, 8169175, 140.66,  33.03, 2574855,       0, 2574650, 2574764, 2574889,      77,   -0.80,   0.119,    0.00,    0.00,    0.00
    31221,2009-06-06T19:30:28.955,-1770.97, 8148566, 140.69,  32.99, 2574857,       0, 2574689, 2574804, 2574890,      94,   -0.73,   0.127,    0.00,    0.00,    0.00
    31222,2009-06-06T19:30:32.812,-1767.12, 8127961, 140.72,  32.96, 2574878,       0, 2574623, 2574737, 2574910,      97,   -0.13,   0.130,    0.00,    0.00,    0.00
    31223,2009-06-06T19:30:36.669,-1763.26, 8107360, 140.76,  32.92, 2574902,       0, 2574694, 2574807, 2574935,      98,   -0.83,   0.128,    0.00,    0.00,    0.00
    31224,2009-06-06T19:30:40.527,-1759.40, 8086760, 140.80,  32.89, 2574847,       0, 2574675, 2574789, 2574879,      93,   -0.72,   0.131,    0.00,    0.00,    0.00
    31225,2009-06-06T19:30:44.384,-1755.54, 8066168, 140.79,  32.85, 2574843,       0, 2574647, 2574760, 2574875,      79,   -0.47,   0.131,    0.00,    0.00,    0.00
    31226,2009-06-06T19:30:48.241,-1751.69, 8045581, 140.80,  32.83, 2574844,       0, 2574649, 2574761, 2574877,     113,   -0.49,   0.119,    0.00,    0.00,    0.00
    31227,2009-06-06T19:30:52.098,-1747.83, 8024998, 140.79,  32.80, 2574849,       0, 2574687, 2574799, 2574881,     109,   -0.95,   0.127,    0.00,    0.00,    0.00
    31228,2009-06-06T19:30:55.955,-1743.97, 8004420, 140.80,  32.79, 2574844,       0, 2574684, 2574795, 2574876,      90,   -0.88,   0.119,    0.00,    0.00,    0.00
    31229,2009-06-06T19:30:59.812,-1740.12, 7983845, 140.81,  32.79, 2574843,       0, 2574708, 2574819, 2574875,      99,   -1.28,   0.118,    0.00,    0.00,    0.00
    31230,2009-06-06T19:31:03.669,-1736.26, 7963276, 140.82,  32.79, 2574847,       0, 2574721, 2574832, 2574878,      72,   -1.92,   0.137,    0.00,    0.00,    0.00
    31231,2009-06-06T19:31:07.528,-1732.40, 7942706, 140.86,  32.79, 2574836,       0, 2574678, 2574789, 2574867,      86,   -1.08,   0.140,    0.00,    0.00,    0.00
    31232,2009-06-06T19:31:11.385,-1728.54, 7922146, 140.92,  32.77, 2574914,       0, 2574688, 2574798, 2574945,      97,   -1.46,   0.125,    0.00,    0.00,    0.00
    31233,2009-06-06T19:31:15.241,-1724.69, 7901590, 140.95,  32.73, 2574821,       0, 2574701, 2574810, 2574853,      88,   -1.37,   0.116,    0.00,    0.00,    0.00
    31234,2009-06-06T19:31:19.098,-1720.83, 7881038, 141.00,  32.68, 2574835,       0, 2574716, 2574823, 2574867,      74,   -1.71,   0.094,    0.00,    0.00,    0.00
    31235,2009-06-06T19:31:22.955,-1716.97, 7860492, 141.04,  32.64, 2574832,       0, 2574735, 2574841, 2574864,      73,   -2.46,   0.081,    0.00,    0.00,    0.00
    31236,2009-06-06T19:31:26.812,-1713.12, 7839950, 141.08,  32.60, 2574840,       0, 2574703, 2574809, 2574873,      63,   -1.50,   0.067,    0.00,    0.00,    0.00
    31237,2009-06-06T19:31:30.669,-1709.26, 7819412, 141.12,  32.55, 2574838,       0, 2574718, 2574823, 2574872,      69,   -1.62,   0.051,    0.00,    0.00,    0.00
    31238,2009-06-06T19:31:34.527,-1705.40, 7798877, 141.16,  32.51, 2574832,       0, 2574722, 2574827, 2574865,      78,   -1.18,   0.041,    0.00,    0.00,    0.00
    31239,2009-06-06T19:31:38.384,-1701.54, 7778349, 141.21,  32.47, 2574832,       0, 2574708, 2574813, 2574866,      76,   -1.64,   0.041,    0.00,    0.00,    0.00
    31240,2009-06-06T19:31:42.241,-1697.69, 7757826, 141.25,  32.42, 2574823,       0, 2574705, 2574810, 2574856,      91,   -1.26,   0.042,    0.00,    0.00,    0.00
    31241,2009-06-06T19:31:46.098,-1693.83, 7737308, 141.30,  32.39, 2574833,       0, 2574695, 2574799, 2574865,      60,   -1.69,   0.062,    0.00,    0.00,    0.00
    31242,2009-06-06T19:31:49.955,-1689.97, 7716794, 141.31,  32.35, 2574832,       0, 2574711, 2574815, 2574865,      71,   -1.42,   0.052,    0.00,    0.00,    0.00
    31243,2009-06-06T19:31:53.812,-1686.12, 7696286, 141.32,  32.33, 2574830,       0, 2574700, 2574803, 2574862,      76,   -0.87,   0.046,    0.00,    0.00,    0.00
    31244,2009-06-06T19:31:57.669,-1682.26, 7675782, 141.34,  32.30, 2574817,       0, 2574714, 2574817, 2574849,      62,   -1.64,   0.063,    0.00,    0.00,    0.00
    31245,2009-06-06T19:32:01.527,-1678.40, 7655279, 141.35,  32.27, 2574813,       0, 2574700, 2574802, 2574845,      75,   -1.14,   0.071,    0.00,    0.00,    0.00
    31246,2009-06-06T19:32:05.384,-1674.54, 7634785, 141.36,  32.24, 2574810,       0, 2574680, 2574783, 2574841,      85,   -0.80,   0.085,    0.00,    0.00,    0.00
    31247,2009-06-06T19:32:09.241,-1670.69, 7614297, 141.35,  32.18, 2574804,       0, 2574701, 2574803, 2574836,      50,   -1.89,   0.091,    0.00,    0.00,    0.00
    31248,2009-06-06T19:32:13.098,-1666.83, 7593813, 141.34,  32.12, 2574804,       0, 2574716, 2574819, 2574834,      70,   -2.10,   0.124,    0.00,    0.00,    0.00
    31249,2009-06-06T19:32:16.955,-1662.97, 7573334, 141.34,  32.07, 2574801,       0, 2574690, 2574795, 2574830,      75,   -1.73,   0.152,    0.00,    0.00,    0.00
    31250,2009-06-06T19:32:20.812,-1659.12, 7552861, 141.37,  32.00, 2574811,       0, 2574663, 2574768, 2574840,      79,   -1.20,   0.167,    0.00,    0.00,    0.00
    31251,2009-06-06T19:32:24.669,-1655.26, 7532393, 141.41,  31.94, 2574789,       0, 2574682, 2574786, 2574818,      84,   -1.57,   0.156,    0.00,    0.00,    0.00
    31252,2009-06-06T19:32:28.527,-1651.40, 7511925, 141.45,  31.90, 2574798,       0, 2574679, 2574781, 2574827,      61,   -1.78,   0.147,    0.00,    0.00,    0.00
    31253,2009-06-06T19:32:32.384,-1647.54, 7491467, 141.50,  31.85, 2574808,       0, 2574703, 2574804, 2574837,      76,   -1.76,   0.134,    0.00,    0.00,    0.00
    31254,2009-06-06T19:32:36.241,-1643.69, 7471015, 141.55,  31.80, 2574801,       0, 2574715, 2574816, 2574831,      53,   -2.39,   0.125,    0.00,    0.00,    0.00
    31255,2009-06-06T19:32:40.098,-1639.83, 7450567, 141.60,  31.75, 2574800,       0, 2574699, 2574799, 2574829,      71,   -1.96,   0.120,    0.00,    0.00,    0.00
    31256,2009-06-06T19:32:43.955,-1635.97, 7430125, 141.65,  31.71, 2574869,       0, 2574715, 2574815, 2574899,      52,   -2.76,   0.118,    0.00,    0.00,    0.00
    31257,2009-06-06T19:32:47.812,-1632.12, 7409688, 141.68,  31.68, 2574812,       0, 2574684, 2574783, 2574842,      82,   -1.41,   0.104,    0.00,    0.00,    0.00
    31258,2009-06-06T19:32:51.669,-1628.26, 7389257, 141.70,  31.65, 2574812,       0, 2574722, 2574820, 2574841,      63,   -1.91,   0.101,    0.00,    0.00,    0.00
    31259,2009-06-06T19:32:55.528,-1624.40, 7368827, 141.72,  31.63, 2574812,       0, 2574691, 2574789, 2574842,      66,   -1.95,   0.089,    0.00,    0.00,    0.00
    31260,2009-06-06T19:32:59.384,-1620.54, 7348406, 141.74,  31.61, 2574822,       0, 2574712, 2574809, 2574852,      77,   -1.77,   0.076,    0.00,    0.00,    0.00
    31261,2009-06-06T19:33:03.241,-1616.69, 7327991, 141.77,  31.58, 2574816,       0, 2574655, 2574752, 2574845,      66,   -0.75,   0.082,    0.00,    0.00,    0.00
    31262,2009-06-06T19:33:07.098,-1612.83, 7307582, 141.79,  31.55, 2574822,       0, 2574726, 2574822, 2574851,      66,   -1.77,   0.093,    0.00,    0.00,    0.00
    31263,2009-06-06T19:33:10.955,-1608.97, 7287178, 141.82,  31.53, 2574819,       0, 2574692, 2574788, 2574848,      67,   -1.95,   0.097,    0.00,    0.00,    0.00
    31264,2009-06-06T19:33:14.812,-1605.12, 7266780, 141.84,  31.51, 2574822,       0, 2574702, 2574798, 2574850,      89,   -1.68,   0.116,    0.00,    0.00,    0.00
    31265,2009-06-06T19:33:18.669,-1601.26, 7246387, 141.88,  31.47, 2574815,       0, 2574716, 2574812, 2574843,      72,   -2.16,   0.107,    0.00,    0.00,    0.00
    31266,2009-06-06T19:33:22.527,-1597.40, 7225997, 141.94,  31.42, 2574826,       0, 2574716, 2574810, 2574855,      72,   -1.58,   0.079,    0.00,    0.00,    0.00
    31267,2009-06-06T19:33:26.384,-1593.54, 7205615, 141.99,  31.38, 2574815,       0, 2574709, 2574802, 2574845,      77,   -1.58,   0.064,    0.00,    0.00,    0.00
    31268,2009-06-06T19:33:30.241,-1589.69, 7185240, 142.04,  31.33, 2574833,       0, 2574698, 2574790, 2574863,      75,   -1.44,   0.048,    0.00,    0.00,    0.00
    31269,2009-06-06T19:33:34.098,-1585.83, 7164870, 142.09,  31.28, 2574842,       0, 2574735, 2574827, 2574872,      67,   -2.15,   0.036,    0.00,    0.00,    0.00
    31270,2009-06-06T19:33:37.955,-1581.97, 7144506, 142.12,  31.22, 2574834,       0, 2574729, 2574822, 2574864,      69,   -1.74,   0.012,    0.00,    0.00,    0.00
    31271,2009-06-06T19:33:41.812,-1578.12, 7124148, 142.14,  31.17, 2574831,       0, 2574714, 2574806, 2574862,      80,   -1.37,   0.010,    0.00,    0.00,    0.00
    31272,2009-06-06T19:33:45.669,-1574.26, 7103796, 142.17,  31.10, 2574835,       0, 2574700, 2574791, 2574865,      79,   -1.09,   0.039,    0.00,    0.00,    0.00
    31273,2009-06-06T19:33:49.527,-1570.40, 7083446, 142.20,  31.04, 2574856,       0, 2574734, 2574825, 2574885,      64,   -1.87,   0.065,    0.00,    0.00,    0.00
    31274,2009-06-06T19:33:53.384,-1566.54, 7063106, 142.22,  30.99, 2574849,       0, 2574726, 2574817, 2574877,      70,   -1.85,   0.079,    0.00,    0.00,    0.00
    31275,2009-06-06T19:33:57.241,-1562.69, 7042772, 142.23,  30.96, 2574841,       0, 2574752, 2574843, 2574869,      55,   -2.10,   0.070,    0.00,    0.00,    0.00
    31276,2009-06-06T19:34:01.098,-1558.83, 7022444, 142.24,  30.93, 2574853,       0, 2574736, 2574826, 2574882,      74,   -1.43,   0.083,    0.00,    0.00,    0.00
    31277,2009-06-06T19:34:04.955,-1554.97, 7002122, 142.25,  30.90, 2574850,       0, 2574758, 2574849, 2574878,      74,   -2.15,   0.104,    0.00,    0.00,    0.00
    31278,2009-06-06T19:34:08.812,-1551.12, 6981806, 142.27,  30.87, 2574853,       0, 2574710, 2574801, 2574880,      88,   -1.28,   0.117,    0.00,    0.00,    0.00
    31279,2009-06-06T19:34:12.669,-1547.26, 6961497, 142.28,  30.84, 2574861,       0, 2574749, 2574840, 2574888,      73,   -2.03,   0.136,    0.00,    0.00,    0.00
    31280,2009-06-06T19:34:16.527,-1543.40, 6941189, 142.30,  30.80, 2574857,       0, 2574756, 2574848, 2574884,      82,   -2.13,   0.151,    0.00,    0.00,    0.00
    31281,2009-06-06T19:34:20.384,-1539.54, 6920892, 142.34,  30.74, 2574856,       0, 2574734, 2574825, 2574883,      71,   -1.72,   0.144,    0.00,    0.00,    0.00
    31282,2009-06-06T19:34:24.241,-1535.69, 6900602, 142.38,  30.69, 2574876,       0, 2574734, 2574824, 2574902,      82,   -1.29,   0.141,    0.00,    0.00,    0.00
    31283,2009-06-06T19:34:28.098,-1531.83, 6880318, 142.43,  30.64, 2574873,       0, 2574766, 2574855, 2574900,      71,   -2.06,   0.118,    0.00,    0.00,    0.00
    31284,2009-06-06T19:34:31.955,-1527.97, 6860040, 142.49,  30.60, 2574861,       0, 2574734, 2574821, 2574889,      88,   -1.34,   0.079,    0.00,    0.00,    0.00
    31285,2009-06-06T19:34:35.812,-1524.12, 6839768, 142.55,  30.56, 2574915,       0, 2574786, 2574872, 2574943,      62,   -2.67,   0.049,    0.00,    0.00,    0.00
    31286,2009-06-06T19:34:39.669,-1520.26, 6819504, 142.62,  30.52, 2574879,       0, 2574783, 2574869, 2574908,      80,   -1.79,   0.013,    0.00,    0.00,    0.00
    31287,2009-06-06T19:34:43.527,-1516.40, 6799241, 142.67,  30.48, 2574875,       0, 2574774, 2574859, 2574904,      56,   -1.89,   0.020,    0.00,    0.00,    0.00
    31288,2009-06-06T19:34:47.384,-1512.54, 6778989, 142.71,  30.43, 2574904,       0, 2574795, 2574881, 2574933,      51,   -2.68,   0.022,    0.00,    0.00,    0.00
    31289,2009-06-06T19:34:51.241,-1508.69, 6758744, 142.74,  30.38, 2574873,       0, 2574760, 2574845, 2574902,      61,   -1.48,   0.024,    0.00,    0.00,    0.00
    31290,2009-06-06T19:34:55.098,-1504.83, 6738506, 142.78,  30.33, 2574886,       0, 2574772, 2574857, 2574914,      63,   -1.69,   0.032,    0.00,    0.00,    0.00
    31291,2009-06-06T19:34:58.955,-1500.97, 6718274, 142.82,  30.28, 2574868,       0, 2574744, 2574828, 2574896,      72,   -1.52,   0.033,    0.00,    0.00,    0.00
    31292,2009-06-06T19:35:02.812,-1497.12, 6698049, 142.83,  30.22, 2574879,       0, 2574773, 2574857, 2574907,      75,   -1.76,   0.021,    0.00,    0.00,    0.00
    31293,2009-06-06T19:35:06.669,-1493.26, 6677831, 142.84,  30.17, 2574874,       0, 2574787, 2574870, 2574902,      56,   -2.29,   0.036,    0.00,    0.00,    0.00
    31294,2009-06-06T19:35:10.527,-1489.40, 6657618, 142.85,  30.12, 2574911,       0, 2574810, 2574894, 2574937,      39,   -3.48,   0.062,    0.00,    0.00,    0.00
    31295,2009-06-06T19:35:14.384,-1485.54, 6637413, 142.87,  30.07, 2574905,       0, 2574786, 2574869, 2574931,      64,   -1.65,   0.080,    0.00,    0.00,    0.00
    31296,2009-06-06T19:35:18.241,-1481.69, 6617216, 142.89,  30.02, 2574884,       0, 2574766, 2574849, 2574910,      65,   -1.58,   0.096,    0.00,    0.00,    0.00
    31297,2009-06-06T19:35:22.098,-1477.83, 6597026, 142.90,  29.97, 2574878,       0, 2574759, 2574843, 2574903,      60,   -1.24,   0.117,    0.00,    0.00,    0.00
    31298,2009-06-06T19:35:25.955,-1473.97, 6576843, 142.93,  29.92, 2574878,       0, 2574765, 2574849, 2574903,      61,   -1.54,   0.126,    0.00,    0.00,    0.00
    31299,2009-06-06T19:35:29.812,-1470.12, 6556667, 142.95,  29.88, 2574893,       0, 2574765, 2574850, 2574917,      55,   -1.44,   0.144,    0.00,    0.00,    0.00
    31300,2009-06-06T19:35:33.669,-1466.26, 6536499, 142.98,  29.84, 2574930,       0, 2574792, 2574876, 2574954,      51,   -2.07,   0.145,    0.00,    0.00,    0.00
    31301,2009-06-06T19:35:37.527,-1462.40, 6516333, 143.03,  29.79, 2574940,       0, 2574801, 2574883, 2574965,      37,   -3.43,   0.120,    0.00,    0.00,    0.00
    31302,2009-06-06T19:35:41.384,-1458.54, 6496179, 143.09,  29.75, 2574889,       0, 2574779, 2574860, 2574914,      57,   -1.78,   0.090,    0.00,    0.00,    0.00
    31303,2009-06-06T19:35:45.241,-1454.69, 6476032, 143.15,  29.71, 2574910,       0, 2574802, 2574881, 2574936,      66,   -1.79,   0.063,    0.00,    0.00,    0.00
    31304,2009-06-06T19:35:49.098,-1450.83, 6455893, 143.21,  29.67, 2574895,       0, 2574803, 2574882, 2574921,      56,   -1.82,   0.031,    0.00,    0.00,    0.00
    31305,2009-06-06T19:35:52.955,-1446.97, 6435761, 143.27,  29.63, 2574930,       0, 2574792, 2574871, 2574957,      63,   -1.17,   0.022,    0.00,    0.00,    0.00
    31306,2009-06-06T19:35:56.812,-1443.12, 6415637, 143.33,  29.59, 2574900,       0, 2574780, 2574859, 2574926,      63,   -1.55,   0.047,    0.00,    0.00,    0.00
    31307,2009-06-06T19:36:00.669,-1439.26, 6395520, 143.35,  29.54, 2574899,       0, 2574788, 2574866, 2574925,      59,   -1.49,   0.040,    0.00,    0.00,    0.00
    31308,2009-06-06T19:36:04.527,-1435.40, 6375406, 143.39,  29.49, 2574894,       0, 2574808, 2574886, 2574920,      56,   -2.06,   0.040,    0.00,    0.00,    0.00
    31309,2009-06-06T19:36:08.384,-1431.54, 6355305, 143.45,  29.43, 2574894,       0, 2574791, 2574869, 2574919,      59,   -1.47,   0.053,    0.00,    0.00,    0.00
    31310,2009-06-06T19:36:12.241,-1427.69, 6335211, 143.48,  29.37, 2574908,       0, 2574794, 2574871, 2574934,      74,   -1.52,   0.046,    0.00,    0.00,    0.00
    31311,2009-06-06T19:36:16.098,-1423.83, 6315125, 143.52,  29.31, 2574952,       0, 2574788, 2574865, 2574978,      71,   -0.68,   0.048,    0.00,    0.00,    0.00
    31312,2009-06-06T19:36:19.955,-1419.97, 6295047, 143.54,  29.25, 2574953,       0, 2574801, 2574877, 2574978,      63,   -1.36,   0.032,    0.00,    0.00,    0.00
    31313,2009-06-06T19:36:23.812,-1416.12, 6274976, 143.55,  29.19, 2574961,       0, 2574821, 2574897, 2574986,      54,   -2.45,   0.022,    0.00,    0.00,    0.00
    31314,2009-06-06T19:36:27.669,-1412.26, 6254914, 143.55,  29.13, 2575071,       0, 2574799, 2574875, 2575096,      58,   -1.25,   0.057,    0.00,    0.00,    0.00
    31315,2009-06-06T19:36:31.527,-1408.40, 6234855, 143.56,  29.07, 2575011,       0, 2574818, 2574894, 2575035,      52,   -2.24,   0.091,    0.00,    0.00,    0.00
    31316,2009-06-06T19:36:35.384,-1404.54, 6214809, 143.56,  29.01, 2574925,       0, 2574812, 2574890, 2574948,      68,   -2.03,   0.144,    0.00,    0.00,    0.00
    31317,2009-06-06T19:36:39.241,-1400.69, 6194770, 143.59,  28.94, 2574964,       0, 2574831, 2574910, 2574986,      49,   -2.79,   0.163,    0.00,    0.00,    0.00
    31318,2009-06-06T19:36:43.098,-1396.83, 6174740, 143.62,  28.88, 2574990,       0, 2574816, 2574895, 2575012,      53,   -1.58,   0.170,    0.00,    0.00,    0.00
    31319,2009-06-06T19:36:46.955,-1392.97, 6154719, 143.67,  28.84, 2574935,       0, 2574830, 2574908, 2574958,      51,   -2.71,   0.155,    0.00,    0.00,    0.00
    31320,2009-06-06T19:36:50.812,-1389.12, 6134705, 143.69,  28.80, 2574948,       0, 2574814, 2574892, 2574970,      61,   -1.90,   0.158,    0.00,    0.00,    0.00
    31321,2009-06-06T19:36:54.669,-1385.26, 6114700, 143.74,  28.77, 2575027,       0, 2574840, 2574916, 2575049,      55,   -2.12,   0.137,    0.00,    0.00,    0.00
    31322,2009-06-06T19:36:58.528,-1381.40, 6094699, 143.79,  28.73, 2574993,       0, 2574819, 2574893, 2575016,      55,   -2.09,   0.114,    0.00,    0.00,    0.00
    31323,2009-06-06T19:37:02.385,-1377.54, 6074711, 143.84,  28.70, 2574942,       0, 2574784, 2574858, 2574965,      54,   -0.27,   0.099,    0.00,    0.00,    0.00
    31324,2009-06-06T19:37:06.241,-1373.69, 6054732, 143.90,  28.66, 2575120,       0, 2574816, 2574889, 2575143,      69,   -0.66,   0.086,    0.00,    0.00,    0.00
    31325,2009-06-06T19:37:10.098,-1369.83, 6034761, 143.96,  28.62, 2575020,       0, 2574826, 2574898, 2575043,      65,   -1.57,   0.086,    0.00,    0.00,    0.00
    31326,2009-06-06T19:37:13.955,-1365.97, 6014798, 144.01,  28.56, 2575133,       0, 2574817, 2574888, 2575157,      83,   -1.10,   0.072,    0.00,    0.00,    0.00
    31327,2009-06-06T19:37:17.812,-1362.12, 5994845, 144.06,  28.50, 2575146,       0, 2574836, 2574907, 2575169,      68,   -0.44,   0.062,    0.00,    0.00,    0.00
    31328,2009-06-06T19:37:21.669,-1358.26, 5974900, 144.12,  28.45, 2575291,       0, 2574806, 2574877, 2575315,      89,   -0.41,   0.058,    0.00,    0.00,    0.00
    31329,2009-06-06T19:37:25.527,-1354.40, 5954962, 144.18,  28.39, 2575260,       0, 2574843, 2574913, 2575283,      97,    0.21,   0.065,    0.00,    0.00,    0.00
    31330,2009-06-06T19:37:29.384,-1350.54, 5935035, 144.22,  28.34, 2575291,       0, 2574844, 2574915, 2575314,      82,    0.09,   0.072,    0.00,    0.00,    0.00
    31331,2009-06-06T19:37:33.241,-1346.69, 5915117, 144.25,  28.28, 2575184,       0, 2574838, 2574909, 2575207,      98,   -0.17,   0.073,    0.00,    0.00,    0.00
    31332,2009-06-06T19:37:37.098,-1342.83, 5895208, 144.28,  28.21, 2575328,       0, 2574890, 2574960, 2575352,      98,   -0.57,   0.045,    0.00,    0.00,    0.00
    31333,2009-06-06T19:37:40.955,-1338.97, 5875309, 144.30,  28.14, 2575137,       0, 2574852, 2574921, 2575161,     117,   -0.46,   0.025,    0.00,    0.00,    0.00
    31334,2009-06-06T19:37:44.812,-1335.12, 5855418, 144.33,  28.07, 2575226,       0, 2574930, 2574999, 2575250,      70,   -1.66,   0.012,    0.00,    0.00,    0.00
    31335,2009-06-06T19:37:48.669,-1331.26, 5835537, 144.37,  28.00, 2575155,       0, 2574932, 2575000, 2575179,      72,   -1.04,   0.026,    0.00,    0.00,    0.00
    31336,2009-06-06T19:37:52.527,-1327.40, 5815665, 144.40,  27.93, 2575189,       0, 2574882, 2574950, 2575212,      71,   -1.09,   0.043,    0.00,    0.00,    0.00
    31337,2009-06-06T19:37:56.523,-1323.41, 5795083, 144.44,  27.86, 2575202,       0, 2574951, 2575019, 2575225,      56,   -2.30,   0.054,    0.00,    0.00,    0.00
    31338,2009-06-06T19:38:00.380,-1319.55, 5775231, 144.48,  27.79, 2575203,       0, 2574916, 2574984, 2575225,      64,   -0.07,   0.067,    0.00,    0.00,    0.00
    31339,2009-06-06T19:38:04.237,-1315.69, 5755388, 144.52,  27.73, 2575155,       0, 2574945, 2575012, 2575177,      50,   -1.09,   0.079,    0.00,    0.00,    0.00
    31340,2009-06-06T19:38:08.094,-1311.83, 5735555, 144.57,  27.66, 2575227,       0, 2574945, 2575012, 2575248,      57,   -0.90,   0.092,    0.00,    0.00,    0.00
    31341,2009-06-06T19:38:11.951,-1307.98, 5715731, 144.61,  27.60, 2575169,       0, 2574916, 2574983, 2575190,      61,    0.14,   0.094,    0.00,    0.00,    0.00
    31342,2009-06-06T19:38:15.808,-1304.12, 5695918, 144.63,  27.55, 2575237,       0, 2574929, 2574995, 2575258,      63,   -0.17,   0.087,    0.00,    0.00,    0.00
    31343,2009-06-06T19:38:19.665,-1300.26, 5676114, 144.66,  27.49, 2575198,       0, 2574935, 2575001, 2575219,      55,   -0.49,   0.086,    0.00,    0.00,    0.00
    31344,2009-06-06T19:38:23.523,-1296.41, 5656316, 144.69,  27.44, 2575231,       0, 2574949, 2575015, 2575251,      67,   -1.50,   0.089,    0.00,    0.00,    0.00
    31345,2009-06-06T19:38:27.380,-1292.55, 5636532, 144.72,  27.39, 2575269,       0, 2574931, 2574997, 2575290,      70,   -0.33,   0.088,    0.00,    0.00,    0.00
    31346,2009-06-06T19:38:31.237,-1288.69, 5616758, 144.75,  27.34, 2575216,       0, 2574918, 2574983, 2575237,      76,   -0.06,   0.089,    0.00,    0.00,    0.00
    31347,2009-06-06T19:38:35.094,-1284.83, 5596995, 144.78,  27.29, 2575231,       0, 2574949, 2575014, 2575251,      76,   -0.72,   0.096,    0.00,    0.00,    0.00
    31348,2009-06-06T19:38:38.951,-1280.98, 5577242, 144.83,  27.24, 2575182,       0, 2574939, 2575003, 2575203,      67,   -0.54,   0.092,    0.00,    0.00,    0.00
    31349,2009-06-06T19:38:42.808,-1277.12, 5557499, 144.87,  27.19, 2575166,       0, 2574931, 2574996, 2575187,      76,   -0.56,   0.094,    0.00,    0.00,    0.00
    31350,2009-06-06T19:38:46.665,-1273.26, 5537766, 144.92,  27.15, 2575167,       0, 2574969, 2575033, 2575188,      66,   -1.51,   0.090,    0.00,    0.00,    0.00